Regional Weather Roundup
Issued by NWS

Home | Current Version | Previous Version | Graphics & Text | Print | Product List | Glossary On
Versions: 1 2 3 4 5 6 7 8 9 10 11 12 13 14 15 16 17 18 19 20 21 22 23 24 25 26 27 28 29 30 31 32 33 34 35 36 37 38 39 40 41 42 43 44 45 46 47 48 49 50
000
ASUS43 KBIS 190710
RWRND

NORTH DAKOTA REGIONAL WEATHER ROUNDUP
NATIONAL WEATHER SERVICE BISMARCK ND
200 AM CDT SAT APR 19 2014

NOTE: "FAIR" INDICATES FEW OR NO CLOUDS BELOW 12,000 FEET WITH NO
SIGNIFICANT WEATHER AND/OR OBSTRUCTIONS TO VISIBILITY.


NDZ001>003-009>011-017-190800-
NORTHWEST NORTH DAKOTA

CITY           SKY/WX    TMP DP  RH WIND       PRES   REMARKS
WILLISTON      CLOUDY    41  37  86 SW10      29.72R
MINOT          CLEAR     35  33  92 SW7       29.71R FOG
MINOT AFB      PTCLDY    33  33  99 SW8       29.71R FOG
$$

NDZ018>021-031>035-040>046-190800-
SOUTHWEST NORTH DAKOTA

CITY           SKY/WX    TMP DP  RH WIND       PRES   REMARKS
BISMARCK       CLEAR     43  37  79 W12       29.70R
DICKINSON      PTCLDY    37  32  82 W10       29.74F
GARRISON         N/A     39  36  89 W12       29.73R
HETTINGER ARPT PTCLDY    39  33  79 NW10      29.81S
$$

NDZ004>008-012>016-024-026-027-054-190800-
NORTHEAST NORTH DAKOTA

CITY           SKY/WX    TMP DP  RH WIND       PRES   REMARKS
GRAND FORKS    CLOUDY    46  31  55 SE32G40   29.76F
GRND FRKS AFB  CLOUDY    44  31  58 S21G32    29.76F
DEVILS LAKE    MOCLDY    39  28  65 SE13      29.70F
$$

NDZ022-023-025-028>030-036>039-047>053-190800-
SOUTHEAST NORTH DAKOTA

CITY           SKY/WX    TMP DP  RH WIND       PRES   REMARKS
FARGO          CLOUDY    51  31  46 SE41G53   29.76F
JAMESTOWN      CLOUDY    47  38  71 SE10      29.65R
$$




USA.gov is the U.S. government's official web portal to all federal, state and local government web resources and services.